EW8411 Weather Reports


Display with metric or nautical units.
time (UTC)temp
F
wind
direction
speed
MPH
gust
MPH
rain 1hr
in
rain 24hr
in
rain mn
in
humidity
%
barometer
mb
20260506193709 64 0 4.0 11.0 0.00 0.00 0.00 73 1017.4
20260506193209 64 0 4.0 11.0 0.00 0.00 0.00 71 1017.4
20260506192712 65 0 2.0 11.0 0.00 0.00 0.00 70 1017.4
20260506192211 66 0 2.0 4.0 0.00 0.00 0.00 70 1017.4
20260506191711 65 0 3.0 8.0 0.00 0.00 0.00 70 1017.4
20260506191212 64 0 3.0 10.0 0.00 0.00 0.00 70 1017.4
20260506190711 66 0 3.0 10.0 0.00 0.00 0.00 67 1017.4
20260506190210 66 0 2.0 6.0 0.00 0.00 0.00 67 1017.5
20260506185710 66 0 2.0 6.0 0.00 0.00 0.00 68 1017.6
20260506185210 65 0 3.0 8.0 0.00 0.00 0.00 69 1017.6
20260506184209 64 0 4.0 9.0 0.00 0.00 0.00 71 1017.7
20260506183710 63 0 4.0 10.0 0.00 0.00 0.00 69 1017.7
20260506183210 63 0 4.0 10.0 0.00 0.00 0.00 70 1017.8
20260506182711 64 0 3.0 9.0 0.00 0.00 0.00 71 1017.8
20260506182212 63 0 4.0 9.0 0.00 0.00 0.00 73 1017.9
20260506181710 62 0 5.0 11.0 0.00 0.00 0.00 75 1018.0
20260506181211 62 0 5.0 11.0 0.00 0.00 0.00 74 1018.0
20260506180711 63 0 4.0 10.0 0.00 0.00 0.00 73 1018.0
20260506180209 63 0 3.0 10.0 0.00 0.00 0.00 73 1017.9
20260506175716 63 0 4.0 9.0 0.00 0.00 0.00 73 1017.9
20260506175711 63 0 3.0 9.0 0.00 0.00 0.00 73 1017.9
20260506175329 62 0 4.0 9.0 0.00 0.00 0.00 73 1017.9
20260506174210 62 0 5.0 10.0 0.00 0.00 0.00 74 1017.9
20260506173710 62 0 5.0 10.0 0.00 0.00 0.00 75 1017.8
20260506173211 62 0 5.0 10.0 0.00 0.00 0.00 74 1017.7
20260506172709 62 0 4.0 11.0 0.00 0.00 0.00 74 1017.8
20260506172210 62 0 4.0 11.0 0.00 0.00 0.00 74 1017.7
20260506171710 62 0 3.0 9.0 0.00 0.00 0.00 74 1017.7
20260506171210 63 0 2.0 8.0 0.00 0.00 0.00 75 1017.8
20260506170710 63 0 3.0 8.0 0.00 0.00 0.00 75 1017.8
20260506170209 62 0 4.0 9.0 0.00 0.00 0.00 75 1017.7
20260506165710 62 0 5.0 10.0 0.00 0.00 0.00 74 1017.6
20260506165210 62 0 5.0 10.0 0.00 0.00 0.00 73 1017.7
20260506164713 63 0 3.0 6.0 0.00 0.00 0.00 72 1017.6
20260506164708 62 0 4.0 9.0 0.00 0.00 0.00 72 1017.6
20260506164325 63 0 4.0 8.0 0.00 0.00 0.00 72 1017.5
20260506163207 63 0 3.0 8.0 0.00 0.00 0.00 71 1017.5
20260506162703 63 0 3.0 8.0 0.00 0.00 0.00 70 1017.5
20260506162203 62 0 3.0 8.0 0.00 0.00 0.00 72 1017.5
20260506161705 62 0 3.0 8.0 0.00 0.00 0.00 72 1017.5
20260506161202 62 0 3.0 5.0 0.00 0.00 0.00 73 1017.5
20260506160701 62 0 3.0 5.0 0.00 0.00 0.00 73 1017.5
20260506160202 62 0 3.0 5.0 0.00 0.00 0.00 73 1017.5
20260506155659 62 0 3.0 6.0 0.00 0.00 0.00 74 1017.5
20260506155202 62 0 3.0 6.0 0.00 0.00 0.00 74 1017.5
20260506154659 62 0 3.0 5.0 0.00 0.00 0.00 74 1017.5
20260506154207 63 0 2.0 5.0 0.00 0.00 0.00 73 1017.4
20260506154202 62 0 2.0 5.0 0.00 0.00 0.00 74 1017.4
20260506153204 63 0 1.0 4.0 0.00 0.00 0.00 71 1017.4
20260506153159 63 0 2.0 4.0 0.00 0.00 0.00 73 1017.4
20260506152157 64 0 1.0 3.0 0.00 0.00 0.00 71 1017.4
20260506151659 64 0 0.0 2.0 0.00 0.00 0.00 71 1017.4
20260506151157 64 0 1.0 2.0 0.00 0.00 0.00 72 1017.3
20260506150655 63 0 0.0 2.0 0.00 0.00 0.00 72 1017.4
20260506150156 62 0 0.0 2.0 0.00 0.00 0.00 74 1017.5
20260506145655 62 0 0.0 2.0 0.00 0.00 0.00 75 1017.4
20260506145157 61 0 0.0 2.0 0.00 0.00 0.00 76 1017.4
20260506144655 60 0 0.0 2.0 0.00 0.00 0.00 77 1017.3
20260506144155 59 0 0.0 2.0 0.00 0.00 0.00 78 1017.3
20260506143656 58 0 0.0 2.0 0.00 0.00 0.00 80 1017.3
20260506143155 57 0 0.0 2.0 0.00 0.00 0.00 81 1017.3
20260506142655 56 0 0.0 2.0 0.00 0.00 0.00 82 1017.3
20260506142156 55 0 1.0 2.0 0.00 0.00 0.00 84 1017.2
20260506141653 54 0 1.0 2.0 0.00 0.00 0.00 85 1017.2
20260506141154 53 0 0.0 2.0 0.00 0.00 0.00 87 1017.2
20260506140655 52 0 0.0 1.0 0.00 0.00 0.00 88 1017.2
20260506140154 52 0 0.0 1.0 0.00 0.00 0.00 89 1017.1
20260506135655 51 0 0.0 1.0 0.00 0.00 0.00 90 1017.1
20260506135153 50 0 0.0 2.0 0.00 0.00 0.00 90 1017.0
20260506134653 50 0 0.0 2.0 0.00 0.00 0.00 90 1017.0
20260506134153 49 0 1.0 2.0 0.00 0.00 0.00 90 1016.9
20260506133700 49 0 0.0 2.0 0.00 0.00 0.00 90 1016.7
20260506133655 49 0 1.0 2.0 0.00 0.00 0.00 90 1016.9
20260506132651 49 0 0.0 2.0 0.00 0.00 0.00 90 1016.6
20260506132152 49 0 0.0 2.0 0.00 0.00 0.00 90 1016.6
20260506131651 49 0 0.0 1.0 0.00 0.00 0.00 90 1016.6
20260506131151 49 0 0.0 2.0 0.00 0.00 0.00 89 1016.6
20260506130657 49 0 1.0 2.0 0.00 0.00 0.00 90 1016.5
20260506130653 49 0 1.0 2.0 0.00 0.00 0.00 90 1016.6
20260506125651 49 0 1.0 2.0 0.00 0.00 0.00 90 1016.5
20260506125156 49 0 1.0 2.0 0.00 0.00 0.00 89 1016.3
20260506125151 49 0 1.0 2.0 0.00 0.00 0.00 90 1016.3
20260506124152 49 0 1.0 2.0 0.00 0.00 0.00 89 1016.3
20260506123649 49 0 1.0 2.0 0.00 0.00 0.00 89 1016.3
20260506123150 49 0 1.0 2.0 0.00 0.00 0.00 90 1016.3
20260506122649 49 0 1.0 2.0 0.00 0.00 0.00 89 1016.4
20260506122150 49 0 1.0 2.0 0.00 0.00 0.00 89 1016.4
20260506121647 49 0 1.0 2.0 0.00 0.00 0.00 89 1016.4
20260506121147 49 0 0.0 2.0 0.00 0.00 0.00 89 1016.2
20260506120653 49 0 0.0 2.0 0.00 0.00 0.00 88 1016.5
20260506120647 49 0 0.0 2.0 0.00 0.00 0.00 88 1016.2
20260506120306 49 0 0.0 2.0 0.00 0.00 0.00 88 1016.4
20260506115805 50 0 1.0 2.0 0.00 0.00 0.00 88 1016.3
20260506115307 50 0 1.0 2.0 0.00 0.00 0.00 88 1016.3
20260506114143 50 0 1.0 2.0 0.00 0.00 0.00 88 1016.3
20260506113642 50 0 0.0 2.0 0.00 0.00 0.00 89 1016.4
20260506113141 50 0 0.0 2.0 0.00 0.00 0.00 88 1016.4
20260506112639 50 0 0.0 2.0 0.00 0.00 0.00 88 1016.4
20260506112140 50 0 1.0 2.0 0.00 0.00 0.00 88 1016.4
20260506111638 50 0 1.0 2.0 0.00 0.00 0.00 88 1016.3
20260506111139 50 0 0.0 2.0 0.00 0.00 0.00 88 1016.2
20260506110640 50 0 0.0 2.0 0.00 0.00 0.00 88 1016.1
20260506110143 51 0 0.0 2.0 0.00 0.00 0.00 87 1016.2
20260506110138 50 0 1.0 2.0 0.00 0.00 0.00 87 1016.1
20260506105134 51 0 0.0 1.0 0.00 0.00 0.00 87 1016.2
20260506104634 51 0 0.0 2.0 0.00 0.00 0.00 87 1016.1
20260506104135 51 0 0.0 2.0 0.00 0.00 0.00 87 1016.1
20260506103635 51 0 1.0 2.0 0.00 0.00 0.00 87 1016.0
20260506103135 51 0 1.0 2.0 0.00 0.00 0.00 87 1016.1
20260506102636 51 0 0.0 2.0 0.00 0.00 0.00 87 1016.0
20260506102135 51 0 1.0 3.0 0.00 0.00 0.00 87 1015.9
20260506101637 51 0 1.0 3.0 0.00 0.00 0.00 86 1015.9
20260506101134 51 0 1.0 3.0 0.00 0.00 0.00 86 1015.9
20260506100640 52 0 1.0 3.0 0.00 0.00 0.00 86 1015.9
20260506100636 52 0 1.0 3.0 0.00 0.00 0.00 86 1015.9
20260506095635 52 0 1.0 2.0 0.00 0.00 0.00 86 1015.9
20260506095135 52 0 0.0 1.0 0.00 0.00 0.00 85 1015.9
20260506094635 52 0 1.0 2.0 0.00 0.00 0.00 85 1016.0
20260506094136 52 0 0.0 2.0 0.00 0.00 0.00 85 1016.0
20260506093636 53 0 1.0 2.0 0.00 0.00 0.00 85 1016.0
20260506093140 53 0 1.0 2.0 0.00 0.00 0.00 85 1015.9
20260506093136 53 0 1.0 2.0 0.00 0.00 0.00 85 1015.9
20260506092140 53 0 1.0 3.0 0.00 0.00 0.00 84 1015.8
20260506092135 53 0 1.0 2.0 0.00 0.00 0.00 84 1015.8
20260506091755 53 0 1.0 3.0 0.00 0.00 0.00 84 1015.9
20260506090636 53 0 1.0 2.0 0.00 0.00 0.00 84 1015.9
20260506090136 54 0 1.0 3.0 0.00 0.00 0.00 84 1015.8
20260506085637 54 0 1.0 3.0 0.00 0.00 0.00 84 1016.0
20260506085136 54 0 1.0 3.0 0.00 0.00 0.00 84 1016.0
20260506084636 53 0 1.0 2.0 0.00 0.00 0.00 83 1016.1
20260506084135 54 0 2.0 3.0 0.00 0.00 0.00 82 1016.2
20260506083640 54 0 1.0 3.0 0.00 0.00 0.00 82 1016.1
20260506083635 54 0 1.0 3.0 0.00 0.00 0.00 82 1016.2
20260506082634 54 0 1.0 3.0 0.00 0.00 0.00 82 1016.1
20260506082134 54 0 1.0 3.0 0.00 0.00 0.00 82 1016.1
20260506081640 54 0 0.0 5.0 0.00 0.00 0.00 81 1016.1
20260506081634 54 0 1.0 5.0 0.00 0.00 0.00 81 1016.1
20260506080637 55 0 0.0 2.0 0.00 0.00 0.00 81 1016.1
20260506080136 55 0 1.0 3.0 0.00 0.00 0.00 80 1016.1
20260506073134 56 0 0.0 2.0 0.00 0.00 0.00 78 1015.9
20260506072634 56 0 0.0 2.0 0.00 0.00 0.00 78 1015.8
20260506072132 56 0 1.0 3.0 0.00 0.00 0.00 78 1015.7
20260506071636 56 0 1.0 3.0 0.00 0.00 0.00 77 1015.7
20260506071632 57 0 0.0 2.0 0.00 0.00 0.00 76 1015.5
20260506070635 58 0 1.0 2.0 0.00 0.00 0.00 74 1015.4
20260506070631 58 0 0.0 2.0 0.00 0.00 0.00 75 1015.4
20260506062130 61 0 2.0 4.0 0.00 0.00 0.00 69 1015.0
20260506062126 61 0 2.0 4.0 0.00 0.00 0.00 69 1015.0
20260506061124 61 0 2.0 4.0 0.00 0.00 0.00 69 1014.9
20260506060625 61 0 3.0 9.0 0.00 0.00 0.00 68 1014.9
20260506060123 61 0 2.0 9.0 0.00 0.00 0.00 69 1014.9
20260506051120 61 0 0.0 2.0 0.00 0.00 0.00 68 1014.5
20260506050618 62 0 0.0 1.0 0.00 0.00 0.00 67 1014.4
20260506050119 62 0 1.0 3.0 0.00 0.00 0.00 67 1014.3
20260506045122 62 0 4.0 11.0 0.00 0.00 0.00 68 1014.3
20260506045116 62 0 4.0 11.0 0.00 0.00 0.00 67 1014.2
20260506044115 61 0 4.0 13.0 0.00 0.00 0.00 70 1014.3
20260506043616 59 0 2.0 13.0 0.00 0.00 0.00 72 1014.2
20260506043114 59 0 0.0 3.0 0.00 0.00 0.00 73 1014.1
20260506042618 59 0 1.0 2.0 0.00 0.00 0.00 73 1014.0
20260506042612 59 0 0.0 2.0 0.00 0.00 0.00 73 1014.0
20260506041613 59 0 0.0 2.0 0.00 0.00 0.00 73 1013.9
20260506041114 59 0 0.0 2.0 0.00 0.00 0.00 72 1013.8
20260506040615 60 0 1.0 2.0 0.00 0.00 0.00 71 1013.7
20260506040611 60 0 1.0 2.0 0.00 0.00 0.00 72 1013.8
20260506035612 60 0 1.0 2.0 0.00 0.00 0.00 70 1013.6
20260506035608 60 0 0.0 2.0 0.00 0.00 0.00 71 1013.7
20260506034606 61 0 1.0 3.0 0.00 0.00 0.00 70 1013.5
20260506034107 61 0 1.0 3.0 0.00 0.00 0.00 69 1013.4
20260506033607 61 0 0.0 2.0 0.00 0.00 0.00 69 1013.4
20260506033107 62 0 0.0 1.0 0.00 0.00 0.00 68 1013.3
20260506032606 62 0 0.0 1.0 0.00 0.00 0.00 68 1013.1
20260506032113 63 0 0.0 2.0 0.00 0.00 0.00 67 1013.0
20260506032108 62 0 1.0 2.0 0.00 0.00 0.00 67 1013.0
20260506031104 63 0 0.0 0.0 0.00 0.00 0.00 65 1012.8
20260506030605 64 0 0.0 2.0 0.00 0.00 0.00 65 1012.7
20260506030106 64 0 0.0 2.0 0.00 0.00 0.00 64 1012.7
20260506025606 64 0 0.0 1.0 0.00 0.00 0.00 64 1012.7
20260506025106 65 0 0.0 2.0 0.00 0.00 0.00 63 1012.7
20260506024605 65 0 1.0 3.0 0.00 0.00 0.00 63 1012.7
20260506024105 65 0 1.0 5.0 0.00 0.00 0.00 62 1012.6
20260506023602 65 0 1.0 5.0 0.00 0.00 0.00 62 1012.5
20260506023104 65 0 1.0 5.0 0.00 0.00 0.00 61 1012.4
20260506022602 66 0 1.0 3.0 0.00 0.00 0.00 62 1012.3
20260506022102 66 0 1.0 3.0 0.00 0.00 0.00 61 1012.3
20260506021602 67 0 2.0 4.0 0.00 0.00 0.00 60 1012.2
20260506021102 68 0 2.0 4.0 0.00 0.00 0.00 58 1012.2
20260506020603 69 0 1.0 4.0 0.00 0.00 0.00 54 1012.2
20260506020104 69 0 2.0 8.0 0.00 0.00 0.00 53 1012.1
20260506015602 70 0 3.0 8.0 0.00 0.00 0.00 52 1012.0
20260506015101 70 0 3.0 8.0 0.00 0.00 0.00 51 1011.9
20260506014559 71 0 3.0 5.0 0.00 0.00 0.00 49 1011.8
20260506014105 71 0 3.0 6.0 0.00 0.00 0.00 48 1011.8
20260506014101 71 0 3.0 6.0 0.00 0.00 0.00 49 1011.8
20260506013100 72 0 2.0 6.0 0.00 0.00 0.00 47 1011.7
20260506012600 73 0 2.0 5.0 0.00 0.00 0.00 47 1011.8
20260506012100 74 0 2.0 5.0 0.00 0.00 0.00 45 1011.7
20260506011601 75 0 1.0 4.0 0.00 0.00 0.00 44 1011.7
20260506011100 76 0 1.0 5.0 0.00 0.00 0.00 43 1011.6
20260506010559 76 0 2.0 6.0 0.00 0.00 0.00 43 1011.6
20260506010058 75 0 2.0 6.0 0.00 0.00 0.00 43 1011.7
20260506005558 75 0 1.0 5.0 0.00 0.00 0.00 43 1011.7
20260506005103 75 0 2.0 6.0 0.00 0.00 0.00 44 1011.7
20260506005057 75 0 2.0 5.0 0.00 0.00 0.00 44 1011.7
20260506004717 75 0 2.0 6.0 0.00 0.00 0.00 45 1011.7
20260506003559 75 0 2.0 6.0 0.00 0.00 0.00 43 1011.7
20260506003055 75 0 3.0 8.0 0.00 0.00 0.00 44 1011.6
20260506002557 75 0 2.0 8.0 0.00 0.00 0.00 45 1011.6
20260506002057 74 0 2.0 6.0 0.00 0.00 0.00 48 1011.5
20260506001555 72 0 3.0 10.0 0.00 0.00 0.00 55 1011.4
20260506001055 71 0 4.0 10.0 0.00 0.00 0.00 53 1011.4
20260506000553 70 0 5.0 10.0 0.00 0.00 0.00 55 1011.4
20260506000052 70 0 5.0 12.0 0.00 0.00 0.00 54 1011.5
20260505235553 72 0 4.0 12.0 0.00 0.00 0.00 52 1011.5
20260505235052 73 0 3.0 8.0 0.00 0.00 0.00 46 1011.4
20260505234052 70 0 3.0 12.0 0.00 0.00 0.00 55 1011.3
20260505233558 69 0 4.0 12.0 0.00 0.00 0.00 55 1011.5
20260505233552 69 0 5.0 12.0 0.00 0.00 0.00 56 1011.5
20260505232553 70 0 4.0 10.0 0.00 0.00 0.00 54 1011.6
20260505232052 71 0 3.0 10.0 0.00 0.00 0.00 51 1011.5
20260505231552 72 0 2.0 10.0 0.00 0.00 0.00 49 1011.5
20260505231052 72 0 3.0 8.0 0.00 0.00 0.00 48 1011.6
20260505230552 72 0 3.0 8.0 0.00 0.00 0.00 48 1011.6
20260505230052 71 0 3.0 10.0 0.00 0.00 0.00 51 1011.5
20260505225553 70 0 5.0 12.0 0.00 0.00 0.00 54 1011.5
20260505225052 70 0 6.0 12.0 0.00 0.00 0.00 56 1011.6
20260505224556 70 0 6.0 14.0 0.00 0.00 0.00 56 1011.8
20260505224551 70 0 5.0 14.0 0.00 0.00 0.00 54 1011.9
20260505224208 71 0 3.0 9.0 0.00 0.00 0.00 52 1011.9
20260505223050 71 0 3.0 10.0 0.00 0.00 0.00 52 1011.9
20260505222549 72 0 3.0 10.0 0.00 0.00 0.00 50 1012.0
20260505222050 72 0 3.0 9.0 0.00 0.00 0.00 49 1012.0
20260505221550 71 0 3.0 9.0 0.00 0.00 0.00 51 1012.0
20260505221055 69 0 4.0 10.0 0.00 0.00 0.00 57 1012.0
20260505221050 71 0 3.0 9.0 0.00 0.00 0.00 54 1012.1
20260505220050 69 0 4.0 11.0 0.00 0.00 0.00 58 1012.1
20260505215555 69 0 3.0 8.0 0.00 0.00 0.00 59 1012.3
20260505215550 68 0 4.0 11.0 0.00 0.00 0.00 58 1012.2
20260505214550 68 0 3.0 8.0 0.00 0.00 0.00 61 1012.3
20260505214048 68 0 3.0 6.0 0.00 0.00 0.00 61 1012.4
20260505213547 67 0 3.0 10.0 0.00 0.00 0.00 61 1012.5
20260505213047 67 0 4.0 12.0 0.00 0.00 0.00 60 1012.5
20260505212548 67 0 5.0 12.0 0.00 0.00 0.00 60 1012.5
20260505212049 68 0 5.0 13.0 0.00 0.00 0.00 59 1012.6
20260505211548 69 0 5.0 13.0 0.00 0.00 0.00 57 1012.5
20260505211049 70 0 7.0 15.0 0.00 0.00 0.00 57 1012.5
20260505210548 70 0 9.0 18.0 0.00 0.00 0.00 57 1012.3
20260505210049 70 0 8.0 18.0 0.00 0.00 0.00 56 1012.3
20260505205549 70 0 9.0 20.0 0.00 0.00 0.00 57 1012.4
20260505205053 68 0 8.0 15.0 0.00 0.00 0.00 58 1012.3
20260505205048 69 0 9.0 20.0 0.00 0.00 0.00 59 1012.4
20260505204048 67 0 6.0 14.0 0.00 0.00 0.00 61 1012.4
20260505203707 67 0 6.0 14.0 0.00 0.00 0.00 65 1012.5
20260505203210 67 0 7.0 12.0 0.00 0.00 0.00 65 1012.6
20260505202047 68 0 8.0 17.0 0.00 0.00 0.00 60 1012.6
20260505201549 69 0 10.0 17.0 0.00 0.00 0.00 55 1012.6
20260505201053 69 0 7.0 17.0 0.00 0.00 0.00 58 1012.7
20260505201049 70 0 9.0 17.0 0.00 0.00 0.00 54 1012.7
20260505200053 69 0 7.0 13.0 0.00 0.00 0.00 58 1012.8
20260505200048 68 0 7.0 14.0 0.00 0.00 0.00 59 1012.7
20260505195047 69 0 5.0 13.0 0.00 0.00 0.00 56 1012.9